Year,Month,Day,Hour,Minute,Value (Times are PST for temperature in C)
2012,05,05,00,00,6.40
2012,05,05,00,01,6.40
2012,05,05,00,02,6.40
2012,05,05,00,03,6.40
2012,05,05,00,04,6.40
2012,05,05,00,05,6.40
2012,05,05,00,06,6.40
2012,05,05,00,07,6.40
2012,05,05,00,08,6.40
2012,05,05,00,09,6.40
2012,05,05,00,10,6.40
2012,05,05,00,11,6.40
2012,05,05,00,12,6.40
2012,05,05,00,13,6.40
2012,05,05,00,14,6.40
2012,05,05,00,15,6.40
2012,05,05,00,16,6.40
2012,05,05,00,17,6.40
2012,05,05,00,18,6.40
2012,05,05,00,19,6.40
2012,05,05,00,20,6.40
2012,05,05,00,21,6.40
2012,05,05,00,22,6.40
2012,05,05,00,23,6.40
2012,05,05,00,24,6.40
2012,05,05,00,25,6.40
2012,05,05,00,26,6.40
2012,05,05,00,27,6.40
2012,05,05,00,28,6.30
2012,05,05,00,29,6.30
2012,05,05,00,30,6.30
2012,05,05,00,31,6.30
2012,05,05,00,32,6.30
2012,05,05,00,33,6.30
2012,05,05,00,34,6.30
2012,05,05,00,35,6.30
2012,05,05,00,36,6.20
2012,05,05,00,37,6.20
2012,05,05,00,38,6.20
2012,05,05,00,39,6.20
2012,05,05,00,40,6.20
2012,05,05,00,41,6.20
2012,05,05,00,42,6.20
2012,05,05,00,43,6.20
2012,05,05,00,44,6.20
2012,05,05,00,45,6.20
2012,05,05,00,46,6.10
2012,05,05,00,47,6.10
2012,05,05,00,48,6.10
2012,05,05,00,49,6.10
2012,05,05,00,50,6.10
2012,05,05,00,51,6.10
2012,05,05,00,52,6.10
2012,05,05,00,53,6.10
2012,05,05,00,54,6.10
2012,05,05,00,55,6.10
2012,05,05,00,56,6.10
2012,05,05,00,57,6.00
2012,05,05,00,58,6.00
2012,05,05,00,59,6.00
2012,05,05,01,00,6.00
2012,05,05,01,01,6.10
2012,05,05,01,02,6.10
2012,05,05,01,03,6.10
2012,05,05,01,04,6.10
2012,05,05,01,05,6.10
2012,05,05,01,06,6.10
2012,05,05,01,07,6.10
2012,05,05,01,08,6.10
2012,05,05,01,09,6.10
2012,05,05,01,10,6.10
2012,05,05,01,11,6.10
2012,05,05,01,12,6.10
2012,05,05,01,13,6.10
2012,05,05,01,14,6.00
2012,05,05,01,15,6.10
2012,05,05,01,16,6.10
2012,05,05,01,17,6.10
2012,05,05,01,18,6.10
2012,05,05,01,19,6.10
2012,05,05,01,20,6.10
2012,05,05,01,21,6.10
2012,05,05,01,22,6.10
2012,05,05,01,23,6.10
2012,05,05,01,24,6.10
2012,05,05,01,25,6.20
2012,05,05,01,26,6.20
2012,05,05,01,27,6.20
2012,05,05,01,28,6.20
2012,05,05,01,29,6.20
2012,05,05,01,30,6.20
2012,05,05,01,31,6.10
2012,05,05,01,32,6.20
2012,05,05,01,33,6.20
2012,05,05,01,34,6.20
2012,05,05,01,35,6.20
2012,05,05,01,36,6.20
2012,05,05,01,37,6.20
2012,05,05,01,38,6.20
2012,05,05,01,39,6.20
2012,05,05,01,40,6.20
2012,05,05,01,41,6.20
2012,05,05,01,42,6.20
2012,05,05,01,43,6.20
2012,05,05,01,44,6.20
2012,05,05,01,45,6.20
2012,05,05,01,46,6.20
2012,05,05,01,47,6.20
2012,05,05,01,48,6.20
2012,05,05,01,49,6.20
2012,05,05,01,50,6.20
2012,05,05,01,51,6.20
2012,05,05,01,52,6.20
2012,05,05,01,53,6.20
2012,05,05,01,54,6.20
2012,05,05,01,55,6.20
2012,05,05,01,56,6.20
2012,05,05,01,57,6.30
2012,05,05,01,58,6.30
2012,05,05,01,59,6.30
2012,05,05,02,00,6.40
2012,05,05,02,01,6.40
2012,05,05,02,02,6.40
2012,05,05,02,03,6.40
2012,05,05,02,04,6.50
2012,05,05,02,05,6.50
2012,05,05,02,06,6.50
2012,05,05,02,07,6.50
2012,05,05,02,08,6.50
2012,05,05,02,09,6.50
2012,05,05,02,10,6.40
2012,05,05,02,11,6.40
2012,05,05,02,12,6.40
2012,05,05,02,13,6.40
2012,05,05,02,14,6.40
2012,05,05,02,15,6.40
2012,05,05,02,16,6.40
2012,05,05,02,17,6.40
2012,05,05,02,18,6.40
2012,05,05,02,19,6.40
2012,05,05,02,20,6.40
2012,05,05,02,21,6.40
2012,05,05,02,22,6.40
2012,05,05,02,23,6.40
2012,05,05,02,24,6.50
2012,05,05,02,25,6.50
2012,05,05,02,26,6.40
2012,05,05,02,27,6.50
2012,05,05,02,28,6.40
2012,05,05,02,29,6.40
2012,05,05,02,30,6.40
2012,05,05,02,31,6.40
2012,05,05,02,32,6.40
2012,05,05,02,33,6.40
2012,05,05,02,34,6.40
2012,05,05,02,35,6.40
2012,05,05,02,36,6.40
2012,05,05,02,37,6.40
2012,05,05,02,38,6.40
2012,05,05,02,39,6.40
2012,05,05,02,40,6.40
2012,05,05,02,41,6.40
2012,05,05,02,42,6.40
2012,05,05,02,43,6.40
2012,05,05,02,44,6.40
2012,05,05,02,45,6.40
2012,05,05,02,46,6.40
2012,05,05,02,47,6.40
2012,05,05,02,48,6.40
2012,05,05,02,49,6.40
2012,05,05,02,50,6.40
2012,05,05,02,51,6.40
2012,05,05,02,52,6.40
2012,05,05,02,53,6.40
2012,05,05,02,54,6.40
2012,05,05,02,55,6.50
2012,05,05,02,56,6.50
2012,05,05,02,57,6.50
2012,05,05,02,58,6.50
2012,05,05,02,59,6.50
2012,05,05,03,00,6.50
2012,05,05,03,01,6.50
2012,05,05,03,02,6.50
2012,05,05,03,03,6.50
2012,05,05,03,04,6.50
2012,05,05,03,05,6.50
2012,05,05,03,06,6.50
2012,05,05,03,07,6.50
2012,05,05,03,08,6.40
2012,05,05,03,09,6.40
2012,05,05,03,10,6.40
2012,05,05,03,11,6.40
2012,05,05,03,12,6.40
2012,05,05,03,13,6.40
2012,05,05,03,14,6.40
2012,05,05,03,15,6.40
2012,05,05,03,16,6.40
2012,05,05,03,17,6.40
2012,05,05,03,18,6.30
2012,05,05,03,19,6.30
2012,05,05,03,20,6.30
2012,05,05,03,21,6.30
2012,05,05,03,22,6.30
2012,05,05,03,23,6.30
2012,05,05,03,24,6.30
2012,05,05,03,25,6.30
2012,05,05,03,26,6.30
2012,05,05,03,27,6.20
2012,05,05,03,28,6.20
2012,05,05,03,29,6.20
2012,05,05,03,30,6.20
2012,05,05,03,31,6.20
2012,05,05,03,32,6.20
2012,05,05,03,33,6.20
2012,05,05,03,34,6.20
2012,05,05,03,35,6.20
2012,05,05,03,36,6.20
2012,05,05,03,37,6.20
2012,05,05,03,38,6.20
2012,05,05,03,39,6.20
2012,05,05,03,40,6.20
2012,05,05,03,41,6.20
2012,05,05,03,42,6.20
2012,05,05,03,43,6.20
2012,05,05,03,44,6.20
2012,05,05,03,45,6.20
2012,05,05,03,46,6.20
2012,05,05,03,47,6.20
2012,05,05,03,48,6.20
2012,05,05,03,49,6.20
2012,05,05,03,50,6.20
2012,05,05,03,51,6.20
2012,05,05,03,52,6.20
2012,05,05,03,53,6.20
2012,05,05,03,54,6.20
2012,05,05,03,55,6.10
2012,05,05,03,56,6.10
2012,05,05,03,57,6.10
2012,05,05,03,58,6.10
2012,05,05,03,59,6.10
2012,05,05,04,00,6.10
2012,05,05,04,01,6.10
2012,05,05,04,02,6.10
2012,05,05,04,03,6.10
2012,05,05,04,04,6.10
2012,05,05,04,05,6.10
2012,05,05,04,06,6.10
2012,05,05,04,07,6.10
2012,05,05,04,08,6.10
2012,05,05,04,09,6.10
2012,05,05,04,10,6.00
2012,05,05,04,11,6.00
2012,05,05,04,12,6.00
2012,05,05,04,13,6.00
2012,05,05,04,14,6.00
2012,05,05,04,15,6.00
2012,05,05,04,16,6.00
2012,05,05,04,17,6.00
2012,05,05,04,18,6.00
2012,05,05,04,19,6.00
2012,05,05,04,20,6.00
2012,05,05,04,21,6.00
2012,05,05,04,22,6.10
2012,05,05,04,23,6.10
2012,05,05,04,24,6.10
2012,05,05,04,25,6.10
2012,05,05,04,26,6.10
2012,05,05,04,27,6.10
2012,05,05,04,28,6.10
2012,05,05,04,29,6.20
2012,05,05,04,30,6.20
2012,05,05,04,31,6.20
2012,05,05,04,32,6.20
2012,05,05,04,33,6.20
2012,05,05,04,34,6.20
2012,05,05,04,35,6.30
2012,05,05,04,36,6.30
2012,05,05,04,37,6.40
2012,05,05,04,38,6.40
2012,05,05,04,39,6.40
2012,05,05,04,40,6.40
2012,05,05,04,41,6.40
2012,05,05,04,42,6.30
2012,05,05,04,43,6.30
2012,05,05,04,44,6.30
2012,05,05,04,45,6.30
2012,05,05,04,46,6.40
2012,05,05,04,47,6.40
2012,05,05,04,48,6.40
2012,05,05,04,49,6.40
2012,05,05,04,50,6.40
2012,05,05,04,51,6.50
2012,05,05,04,52,6.50
2012,05,05,04,53,6.50
2012,05,05,04,54,6.50
2012,05,05,04,55,6.50
2012,05,05,04,56,6.50
2012,05,05,04,57,6.40
2012,05,05,04,58,6.40
2012,05,05,04,59,6.40
2012,05,05,05,00,6.40
2012,05,05,05,01,6.40
2012,05,05,05,02,6.40
2012,05,05,05,03,6.40
2012,05,05,05,04,6.40
2012,05,05,05,05,6.40
2012,05,05,05,06,6.40
2012,05,05,05,07,6.40
2012,05,05,05,08,6.40
2012,05,05,05,09,6.40
2012,05,05,05,10,6.40
2012,05,05,05,11,6.40
2012,05,05,05,12,6.40
2012,05,05,05,13,6.40
2012,05,05,05,14,6.40
2012,05,05,05,15,6.40
2012,05,05,05,16,6.40
2012,05,05,05,17,6.30
2012,05,05,05,18,6.30
2012,05,05,05,19,6.30
2012,05,05,05,20,6.30
2012,05,05,05,21,6.30
2012,05,05,05,22,6.30
2012,05,05,05,23,6.30
2012,05,05,05,24,6.30
2012,05,05,05,25,6.30
2012,05,05,05,26,6.30
2012,05,05,05,27,6.30
2012,05,05,05,28,6.30
2012,05,05,05,29,6.20
2012,05,05,05,30,6.20
2012,05,05,05,31,6.20
2012,05,05,05,32,6.20
2012,05,05,05,33,6.20
2012,05,05,05,34,6.20
2012,05,05,05,35,6.20
2012,05,05,05,36,6.20
2012,05,05,05,37,6.20
2012,05,05,05,38,6.20
2012,05,05,05,39,6.20
2012,05,05,05,40,6.20
2012,05,05,05,41,6.20
2012,05,05,05,42,6.20
2012,05,05,05,43,6.20
2012,05,05,05,44,6.10
2012,05,05,05,45,6.10
2012,05,05,05,46,6.10
2012,05,05,05,47,6.10
2012,05,05,05,48,6.10
2012,05,05,05,49,6.10
2012,05,05,05,50,6.10
2012,05,05,05,51,6.10
2012,05,05,05,52,6.10
2012,05,05,05,53,6.10
2012,05,05,05,54,6.10
2012,05,05,05,55,6.10
2012,05,05,05,56,6.10
2012,05,05,05,57,6.10
2012,05,05,05,58,6.10
2012,05,05,05,59,6.00
2012,05,05,06,00,6.00
2012,05,05,06,01,6.00
2012,05,05,06,02,6.00
2012,05,05,06,03,6.00
2012,05,05,06,04,6.00
2012,05,05,06,05,6.00
2012,05,05,06,06,6.00
2012,05,05,06,07,6.00
2012,05,05,06,08,6.00
2012,05,05,06,09,6.00
2012,05,05,06,10,6.00
2012,05,05,06,11,6.00
2012,05,05,06,12,6.00
2012,05,05,06,13,6.00
2012,05,05,06,14,6.00
2012,05,05,06,15,5.90
2012,05,05,06,16,5.90
2012,05,05,06,17,5.90
2012,05,05,06,18,5.90
2012,05,05,06,19,5.90
2012,05,05,06,20,5.90
2012,05,05,06,21,5.90
2012,05,05,06,22,5.90
2012,05,05,06,23,5.90
2012,05,05,06,24,6.00
2012,05,05,06,25,6.00
2012,05,05,06,26,6.00
2012,05,05,06,27,6.00
2012,05,05,06,28,6.00
2012,05,05,06,29,6.00
2012,05,05,06,30,6.00
2012,05,05,06,31,6.00
2012,05,05,06,32,6.10
2012,05,05,06,33,6.00
2012,05,05,06,34,6.10
2012,05,05,06,35,6.10
2012,05,05,06,36,6.10
2012,05,05,06,37,6.10
2012,05,05,06,38,6.00
2012,05,05,06,39,6.00
2012,05,05,06,40,6.00
2012,05,05,06,41,6.00
2012,05,05,06,42,6.00
2012,05,05,06,43,6.00
2012,05,05,06,44,6.00
2012,05,05,06,45,6.00
2012,05,05,06,46,6.00
2012,05,05,06,47,6.00
2012,05,05,06,48,6.00
2012,05,05,06,49,6.00
2012,05,05,06,50,6.00
2012,05,05,06,51,6.00
2012,05,05,06,52,6.00
2012,05,05,06,53,6.00
2012,05,05,06,54,6.00
2012,05,05,06,55,6.00
2012,05,05,06,56,6.00
2012,05,05,06,57,6.00
2012,05,05,06,58,6.00
2012,05,05,06,59,6.00
2012,05,05,07,00,6.00
2012,05,05,07,01,6.00
2012,05,05,07,02,6.00
2012,05,05,07,03,6.00
2012,05,05,07,04,6.00
2012,05,05,07,05,6.00
2012,05,05,07,06,6.00
2012,05,05,07,07,6.00
2012,05,05,07,08,6.10
2012,05,05,07,09,6.10
2012,05,05,07,10,6.10
2012,05,05,07,11,6.10
2012,05,05,07,12,6.10
2012,05,05,07,13,6.10
2012,05,05,07,14,6.10
2012,05,05,07,15,6.10
2012,05,05,07,16,6.10
2012,05,05,07,17,6.10
2012,05,05,07,18,6.10
2012,05,05,07,19,6.10
2012,05,05,07,20,6.20
2012,05,05,07,21,6.20
2012,05,05,07,22,6.20
2012,05,05,07,23,6.20
2012,05,05,07,24,6.30
2012,05,05,07,25,6.30
2012,05,05,07,26,6.40
2012,05,05,07,27,6.40
2012,05,05,07,28,6.50
2012,05,05,07,29,6.50
2012,05,05,07,30,6.60
2012,05,05,07,31,6.60
2012,05,05,07,32,6.60
2012,05,05,07,33,6.60
2012,05,05,07,34,6.70
2012,05,05,07,35,6.70
2012,05,05,07,36,6.70
2012,05,05,07,37,6.70
2012,05,05,07,38,6.70
2012,05,05,07,39,6.80
2012,05,05,07,40,6.80
2012,05,05,07,41,6.80
2012,05,05,07,42,6.80
2012,05,05,07,43,6.80
2012,05,05,07,44,6.80
2012,05,05,07,45,6.90
2012,05,05,07,46,6.90
2012,05,05,07,47,6.90
2012,05,05,07,48,6.90
2012,05,05,07,49,7.00
2012,05,05,07,50,7.00
2012,05,05,07,51,7.00
2012,05,05,07,52,7.00
2012,05,05,07,53,7.00
2012,05,05,07,54,7.10
2012,05,05,07,55,7.10
2012,05,05,07,56,7.10
2012,05,05,07,57,7.10
2012,05,05,07,58,7.10
2012,05,05,07,59,7.10
2012,05,05,08,00,7.10
2012,05,05,08,01,7.20
2012,05,05,08,02,7.20
2012,05,05,08,03,7.20
2012,05,05,08,04,7.20
2012,05,05,08,05,7.20
2012,05,05,08,06,7.30
2012,05,05,08,07,7.30
2012,05,05,08,08,7.30
2012,05,05,08,09,7.30
2012,05,05,08,10,7.30
2012,05,05,08,11,7.40
2012,05,05,08,12,7.40
2012,05,05,08,13,7.40
2012,05,05,08,14,7.50
2012,05,05,08,15,7.50
2012,05,05,08,16,7.60
2012,05,05,08,17,7.60
2012,05,05,08,18,7.60
2012,05,05,08,19,7.70
2012,05,05,08,20,7.70
2012,05,05,08,21,7.80
2012,05,05,08,22,7.80
2012,05,05,08,23,7.90
2012,05,05,08,24,8.00
2012,05,05,08,25,8.00
2012,05,05,08,26,8.10
2012,05,05,08,27,8.10
2012,05,05,08,28,8.20
2012,05,05,08,29,8.20
2012,05,05,08,30,8.30
2012,05,05,08,31,8.30
2012,05,05,08,32,8.30
2012,05,05,08,33,8.40
2012,05,05,08,34,8.50
2012,05,05,08,35,8.60
2012,05,05,08,36,8.70
2012,05,05,08,37,8.80
2012,05,05,08,38,8.90
2012,05,05,08,39,9.00
2012,05,05,08,40,9.10
2012,05,05,08,41,9.20
2012,05,05,08,42,9.30
2012,05,05,08,43,9.50
2012,05,05,08,44,9.60
2012,05,05,08,45,9.70
2012,05,05,08,46,9.80
2012,05,05,08,47,9.90
2012,05,05,08,48,9.90
2012,05,05,08,49,10.00
2012,05,05,08,50,10.00
2012,05,05,08,51,10.00
2012,05,05,08,52,9.90
2012,05,05,08,53,9.90
2012,05,05,08,54,9.90
2012,05,05,08,55,9.80
2012,05,05,08,56,9.80
2012,05,05,08,57,9.90
2012,05,05,08,58,9.90
2012,05,05,08,59,9.90
2012,05,05,09,00,10.00
2012,05,05,09,01,10.10
2012,05,05,09,02,10.20
2012,05,05,09,03,10.30
2012,05,05,09,04,10.50
2012,05,05,09,05,10.60
2012,05,05,09,06,10.60
2012,05,05,09,07,10.70
2012,05,05,09,08,10.80
2012,05,05,09,09,10.90
2012,05,05,09,10,10.90
2012,05,05,09,11,11.00
2012,05,05,09,12,11.10
2012,05,05,09,13,11.20
2012,05,05,09,14,11.30
2012,05,05,09,15,11.20
2012,05,05,09,16,11.20
2012,05,05,09,17,11.20
2012,05,05,09,18,11.30
2012,05,05,09,19,11.30
2012,05,05,09,20,11.40
2012,05,05,09,21,11.50
2012,05,05,09,22,11.50
2012,05,05,09,23,11.60
2012,05,05,09,24,11.70
2012,05,05,09,25,11.80
2012,05,05,09,26,11.80
2012,05,05,09,27,11.80
2012,05,05,09,28,11.90
2012,05,05,09,29,11.90
2012,05,05,09,30,11.80
2012,05,05,09,31,11.80
2012,05,05,09,32,11.70
2012,05,05,09,33,11.70
2012,05,05,09,34,11.80
2012,05,05,09,35,11.80
2012,05,05,09,36,11.90
2012,05,05,09,37,12.00
2012,05,05,09,38,12.00
2012,05,05,09,39,12.00
2012,05,05,09,40,12.00
2012,05,05,09,41,12.10
2012,05,05,09,42,12.20
2012,05,05,09,43,12.20
2012,05,05,09,44,12.30
2012,05,05,09,45,12.30
2012,05,05,09,46,12.30
2012,05,05,09,47,12.30
2012,05,05,09,48,12.30
2012,05,05,09,49,12.40
2012,05,05,09,50,12.40
2012,05,05,09,51,12.50
2012,05,05,09,52,12.50
2012,05,05,09,53,12.60
2012,05,05,09,54,12.60
2012,05,05,09,55,12.70
2012,05,05,09,56,12.80
2012,05,05,09,57,12.80
2012,05,05,09,58,12.80
2012,05,05,09,59,12.80
2012,05,05,10,00,12.80
2012,05,05,10,01,12.90
2012,05,05,10,02,12.90
2012,05,05,10,03,12.90
2012,05,05,10,04,13.00
2012,05,05,10,05,13.10
2012,05,05,10,06,13.10
2012,05,05,10,07,13.20
2012,05,05,10,08,13.30
2012,05,05,10,09,13.30
2012,05,05,10,10,13.30
2012,05,05,10,11,13.30
2012,05,05,10,12,13.20
2012,05,05,10,13,13.20
2012,05,05,10,14,13.20
2012,05,05,10,15,13.20
2012,05,05,10,16,13.20
2012,05,05,10,17,13.20
2012,05,05,10,18,13.20
2012,05,05,10,19,13.20
2012,05,05,10,20,13.20
2012,05,05,10,21,13.20
2012,05,05,10,22,13.30
2012,05,05,10,23,13.30
2012,05,05,10,24,13.30
2012,05,05,10,25,13.30
2012,05,05,10,26,13.30
2012,05,05,10,27,13.30
2012,05,05,10,28,13.30
2012,05,05,10,29,13.30
2012,05,05,10,30,13.30
2012,05,05,10,31,13.20
2012,05,05,10,32,13.20
2012,05,05,10,33,13.30
2012,05,05,10,34,13.30
2012,05,05,10,35,13.30
2012,05,05,10,36,13.30
2012,05,05,10,37,13.30
2012,05,05,10,38,13.30
2012,05,05,10,39,13.30
2012,05,05,10,40,13.40
2012,05,05,10,41,13.40
2012,05,05,10,42,13.40
2012,05,05,10,43,13.40
2012,05,05,10,44,13.40
2012,05,05,10,45,13.40
2012,05,05,10,46,13.40
2012,05,05,10,47,13.30
2012,05,05,10,48,13.30
2012,05,05,10,49,13.30
2012,05,05,10,50,13.30
2012,05,05,10,51,13.20
2012,05,05,10,52,13.10
2012,05,05,10,53,13.10
2012,05,05,10,54,13.10
2012,05,05,10,55,13.00
2012,05,05,10,56,13.00
2012,05,05,10,57,12.90
2012,05,05,10,58,12.80
2012,05,05,10,59,12.80
2012,05,05,11,00,12.80
2012,05,05,11,01,12.80
2012,05,05,11,02,12.90
2012,05,05,11,03,13.00
2012,05,05,11,04,13.10
2012,05,05,11,05,13.00
2012,05,05,11,06,13.10
2012,05,05,11,07,13.00
2012,05,05,11,08,13.00
2012,05,05,11,09,13.10
2012,05,05,11,10,13.20
2012,05,05,11,11,13.20
2012,05,05,11,12,13.30
2012,05,05,11,13,13.30
2012,05,05,11,14,13.40
2012,05,05,11,15,13.40
2012,05,05,11,16,13.50
2012,05,05,11,17,13.60
2012,05,05,11,18,13.70
2012,05,05,11,19,13.70
2012,05,05,11,20,13.80
2012,05,05,11,21,13.80
2012,05,05,11,22,13.90
2012,05,05,11,23,13.90
2012,05,05,11,24,13.90
2012,05,05,11,25,13.90
2012,05,05,11,26,13.80
2012,05,05,11,27,13.80
2012,05,05,11,28,13.80
2012,05,05,11,29,13.70
2012,05,05,11,30,13.70
2012,05,05,11,31,13.70
2012,05,05,11,32,13.70
2012,05,05,11,33,13.70
2012,05,05,11,34,13.80
2012,05,05,11,35,13.80
2012,05,05,11,36,13.90
2012,05,05,11,37,13.90
2012,05,05,11,38,13.90
2012,05,05,11,39,14.00
2012,05,05,11,40,14.00
2012,05,05,11,41,14.00
2012,05,05,11,42,13.90
2012,05,05,11,43,13.90
2012,05,05,11,44,13.90
2012,05,05,11,45,14.00
2012,05,05,11,46,14.10
2012,05,05,11,47,14.10
2012,05,05,11,48,14.10
2012,05,05,11,49,14.20
2012,05,05,11,50,14.20
2012,05,05,11,51,14.20
2012,05,05,11,52,14.20
2012,05,05,11,53,14.20
2012,05,05,11,54,14.20
2012,05,05,11,55,14.10
2012,05,05,11,56,14.10
2012,05,05,11,57,14.00
2012,05,05,11,58,13.90
2012,05,05,11,59,13.80
2012,05,05,12,00,13.80
2012,05,05,12,01,13.80
2012,05,05,12,02,13.90
2012,05,05,12,03,13.90
2012,05,05,12,04,13.90
2012,05,05,12,05,14.00
2012,05,05,12,06,14.10
2012,05,05,12,07,14.20
2012,05,05,12,08,14.20
2012,05,05,12,09,14.20
2012,05,05,12,10,14.20
2012,05,05,12,11,14.20
2012,05,05,12,12,14.10
2012,05,05,12,13,14.10
2012,05,05,12,14,14.10
2012,05,05,12,15,14.10
2012,05,05,12,16,14.10
2012,05,05,12,17,14.10
2012,05,05,12,18,14.10
2012,05,05,12,19,14.20
2012,05,05,12,20,14.20
2012,05,05,12,21,14.20
2012,05,05,12,22,14.30
2012,05,05,12,23,14.30
2012,05,05,12,24,14.30
2012,05,05,12,25,14.30
2012,05,05,12,26,14.30
2012,05,05,12,27,14.30
2012,05,05,12,28,14.30
2012,05,05,12,29,14.40
2012,05,05,12,30,14.50
2012,05,05,12,31,14.60
2012,05,05,12,32,14.60
2012,05,05,12,33,14.60
2012,05,05,12,34,14.60
2012,05,05,12,35,14.60
2012,05,05,12,36,14.60
2012,05,05,12,37,14.60
2012,05,05,12,38,14.60
2012,05,05,12,39,14.70
2012,05,05,12,40,14.80
2012,05,05,12,41,14.90
2012,05,05,12,42,15.00
2012,05,05,12,43,15.00
2012,05,05,12,44,15.10
2012,05,05,12,45,15.20
2012,05,05,12,46,15.20
2012,05,05,12,47,15.20
2012,05,05,12,48,15.10
2012,05,05,12,49,15.10
2012,05,05,12,50,15.20
2012,05,05,12,51,15.20
2012,05,05,12,52,15.20
2012,05,05,12,53,15.20
2012,05,05,12,54,15.30
2012,05,05,12,55,15.30
2012,05,05,12,56,15.30
2012,05,05,12,57,15.20
2012,05,05,12,58,15.00
2012,05,05,12,59,15.00
2012,05,05,13,00,15.00
2012,05,05,13,01,15.00
2012,05,05,13,02,15.00
2012,05,05,13,03,15.10
2012,05,05,13,04,15.10
2012,05,05,13,05,15.10
2012,05,05,13,06,15.20
2012,05,05,13,07,15.20
2012,05,05,13,08,15.10
2012,05,05,13,09,15.20
2012,05,05,13,10,15.20
2012,05,05,13,11,15.30
2012,05,05,13,12,15.40
2012,05,05,13,13,15.40
2012,05,05,13,14,15.40
2012,05,05,13,15,15.40
2012,05,05,13,16,15.40
2012,05,05,13,17,15.40
2012,05,05,13,18,15.40
2012,05,05,13,19,15.40
2012,05,05,13,20,15.40
2012,05,05,13,21,15.40
2012,05,05,13,22,15.50
2012,05,05,13,23,15.50
2012,05,05,13,24,15.50
2012,05,05,13,25,15.50
2012,05,05,13,26,15.40
2012,05,05,13,27,15.40
2012,05,05,13,28,15.40
2012,05,05,13,29,15.30
2012,05,05,13,30,15.20
2012,05,05,13,31,15.20
2012,05,05,13,32,15.20
2012,05,05,13,33,15.10
2012,05,05,13,34,15.10
2012,05,05,13,35,15.10
2012,05,05,13,36,15.00
2012,05,05,13,37,15.00
2012,05,05,13,38,14.90
2012,05,05,13,39,14.70
2012,05,05,13,40,14.60
2012,05,05,13,41,14.40
2012,05,05,13,42,14.30
2012,05,05,13,43,14.20
2012,05,05,13,44,14.00
2012,05,05,13,45,14.00
2012,05,05,13,46,13.90
2012,05,05,13,47,14.00
2012,05,05,13,48,14.00
2012,05,05,13,49,14.00
2012,05,05,13,50,14.10
2012,05,05,13,51,14.10
2012,05,05,13,52,14.10
2012,05,05,13,53,14.10
2012,05,05,13,54,14.10
2012,05,05,13,55,14.10
2012,05,05,13,56,14.10
2012,05,05,13,57,14.00
2012,05,05,13,58,14.00
2012,05,05,13,59,13.90
2012,05,05,14,00,13.90
2012,05,05,14,01,13.80
2012,05,05,14,02,13.80
2012,05,05,14,03,13.80
2012,05,05,14,04,13.80
2012,05,05,14,05,13.80
2012,05,05,14,06,13.80
2012,05,05,14,07,13.80
2012,05,05,14,08,13.80
2012,05,05,14,09,13.80
2012,05,05,14,10,13.80
2012,05,05,14,11,13.80
2012,05,05,14,12,13.80
2012,05,05,14,13,13.80
2012,05,05,14,14,13.80
2012,05,05,14,15,13.80
2012,05,05,14,16,13.90
2012,05,05,14,17,13.90
2012,05,05,14,18,13.90
2012,05,05,14,19,13.90
2012,05,05,14,20,13.90
2012,05,05,14,21,13.90
2012,05,05,14,22,13.90
2012,05,05,14,23,13.90
2012,05,05,14,24,14.00
2012,05,05,14,25,14.10
2012,05,05,14,26,14.20
2012,05,05,14,27,14.30
2012,05,05,14,28,14.40
2012,05,05,14,29,14.60
2012,05,05,14,30,14.60
2012,05,05,14,31,14.70
2012,05,05,14,32,14.80
2012,05,05,14,33,14.80
2012,05,05,14,34,14.90
2012,05,05,14,35,15.00
2012,05,05,14,36,15.10
2012,05,05,14,37,15.10
2012,05,05,14,38,15.20
2012,05,05,14,39,15.20
2012,05,05,14,40,15.30
2012,05,05,14,41,15.30
2012,05,05,14,42,15.40
2012,05,05,14,43,15.50
2012,05,05,14,44,15.50
2012,05,05,14,45,15.50
2012,05,05,14,46,15.60
2012,05,05,14,47,15.60
2012,05,05,14,48,15.60
2012,05,05,14,49,15.60
2012,05,05,14,50,15.70
2012,05,05,14,51,15.70
2012,05,05,14,52,15.80
2012,05,05,14,53,15.80
2012,05,05,14,54,15.70
2012,05,05,14,55,15.70
2012,05,05,14,56,15.50
2012,05,05,14,57,15.40
2012,05,05,14,58,15.30
2012,05,05,14,59,15.20
2012,05,05,15,00,15.10
2012,05,05,15,01,15.10
2012,05,05,15,02,15.00
2012,05,05,15,03,15.00
2012,05,05,15,04,14.90
2012,05,05,15,05,14.90
2012,05,05,15,06,14.80
2012,05,05,15,07,14.80
2012,05,05,15,08,14.90
2012,05,05,15,09,14.90
2012,05,05,15,10,14.90
2012,05,05,15,11,14.90
2012,05,05,15,12,14.90
2012,05,05,15,13,14.90
2012,05,05,15,14,15.00
2012,05,05,15,15,15.00
2012,05,05,15,16,15.00
2012,05,05,15,17,15.10
2012,05,05,15,18,15.10
2012,05,05,15,19,15.20
2012,05,05,15,20,15.20
2012,05,05,15,21,15.30
2012,05,05,15,22,15.30
2012,05,05,15,23,15.40
2012,05,05,15,24,15.50
2012,05,05,15,25,15.60
2012,05,05,15,26,15.70
2012,05,05,15,27,15.80
2012,05,05,15,28,15.90
2012,05,05,15,29,15.90
2012,05,05,15,30,16.00
2012,05,05,15,31,16.00
2012,05,05,15,32,16.00
2012,05,05,15,33,16.00
2012,05,05,15,34,16.00
2012,05,05,15,35,16.00
2012,05,05,15,36,15.90
2012,05,05,15,37,15.90
2012,05,05,15,38,15.70
2012,05,05,15,39,15.60
2012,05,05,15,40,15.60
2012,05,05,15,41,15.50
2012,05,05,15,42,15.50
2012,05,05,15,43,15.50
2012,05,05,15,44,15.50
2012,05,05,15,45,15.60
2012,05,05,15,46,15.60
2012,05,05,15,47,15.60
2012,05,05,15,48,15.50
2012,05,05,15,49,15.50
2012,05,05,15,50,15.40
2012,05,05,15,51,15.30
2012,05,05,15,52,15.30
2012,05,05,15,53,15.30
2012,05,05,15,54,15.30
2012,05,05,15,55,15.30
2012,05,05,15,56,15.30
2012,05,05,15,57,15.30
2012,05,05,15,58,15.20
2012,05,05,15,59,15.10
2012,05,05,16,00,15.10
2012,05,05,16,01,15.00
2012,05,05,16,02,14.90
2012,05,05,16,03,14.90
2012,05,05,16,04,14.80
2012,05,05,16,05,14.70
2012,05,05,16,06,14.70
2012,05,05,16,07,14.80
2012,05,05,16,08,14.90
2012,05,05,16,09,15.00
2012,05,05,16,10,15.10
2012,05,05,16,11,15.20
2012,05,05,16,12,15.30
2012,05,05,16,13,15.50
2012,05,05,16,14,15.60
2012,05,05,16,15,15.70
2012,05,05,16,16,15.80
2012,05,05,16,17,15.90
2012,05,05,16,18,15.90
2012,05,05,16,19,16.00
2012,05,05,16,20,16.00
2012,05,05,16,21,16.10
2012,05,05,16,22,16.10
2012,05,05,16,23,16.10
2012,05,05,16,24,16.10
2012,05,05,16,25,16.10
2012,05,05,16,26,16.10
2012,05,05,16,27,16.20
2012,05,05,16,28,16.20
2012,05,05,16,29,16.20
2012,05,05,16,30,16.20
2012,05,05,16,31,16.20
2012,05,05,16,32,16.10
2012,05,05,16,33,16.00
2012,05,05,16,34,16.00
2012,05,05,16,35,15.90
2012,05,05,16,36,15.90
2012,05,05,16,37,15.90
2012,05,05,16,38,15.90
2012,05,05,16,39,15.80
2012,05,05,16,40,15.80
2012,05,05,16,41,15.80
2012,05,05,16,42,15.70
2012,05,05,16,43,15.70
2012,05,05,16,44,15.60
2012,05,05,16,45,15.50
2012,05,05,16,46,15.40
2012,05,05,16,47,15.30
2012,05,05,16,48,15.30
2012,05,05,16,49,15.20
2012,05,05,16,50,15.20
2012,05,05,16,51,15.10
2012,05,05,16,52,15.10
2012,05,05,16,53,15.00
2012,05,05,16,54,15.00
2012,05,05,16,55,14.90
2012,05,05,16,56,14.90
2012,05,05,16,57,14.80
2012,05,05,16,58,14.70
2012,05,05,16,59,14.70
2012,05,05,17,00,14.60
2012,05,05,17,01,14.60
2012,05,05,17,02,14.50
2012,05,05,17,03,14.50
2012,05,05,17,04,14.40
2012,05,05,17,05,14.40
2012,05,05,17,06,14.30
2012,05,05,17,07,14.20
2012,05,05,17,08,14.20
2012,05,05,17,09,14.20
2012,05,05,17,10,14.10
2012,05,05,17,11,14.10
2012,05,05,17,12,14.10
2012,05,05,17,13,14.10
2012,05,05,17,14,14.10
2012,05,05,17,15,14.00
2012,05,05,17,16,14.00
2012,05,05,17,17,14.00
2012,05,05,17,18,14.00
2012,05,05,17,19,14.00
2012,05,05,17,20,14.00
2012,05,05,17,21,14.00
2012,05,05,17,22,13.90
2012,05,05,17,23,13.90
2012,05,05,17,24,13.90
2012,05,05,17,25,13.90
2012,05,05,17,26,13.90
2012,05,05,17,27,13.90
2012,05,05,17,28,13.90
2012,05,05,17,29,14.00
2012,05,05,17,30,14.00
2012,05,05,17,31,14.00
2012,05,05,17,32,14.00
2012,05,05,17,33,14.10
2012,05,05,17,34,14.10
2012,05,05,17,35,14.10
2012,05,05,17,36,14.00
2012,05,05,17,37,14.10
2012,05,05,17,38,14.10
2012,05,05,17,39,14.10
2012,05,05,17,40,14.10
2012,05,05,17,41,14.10
2012,05,05,17,42,14.10